TimeHST,TemperatureF,Dew PointF,Humidity,Sea Level PressureIn,VisibilityMPH,Wind Direction,Wind SpeedMPH,Gust SpeedMPH,PrecipitationIn,Events,Conditions,WindDirDegrees,DateUTC
12:53 AM,75.9,66.9,74,30.01,10.0,North,3.5,-,N/A,,Partly Cloudy,10,2013-09-12 10:53:00
1:53 AM,75.9,66.9,74,29.99,10.0,North,5.8,-,N/A,,Partly Cloudy,350,2013-09-12 11:53:00
2:53 AM,75.9,66.9,74,29.98,10.0,NW,5.8,-,N/A,,Partly Cloudy,320,2013-09-12 12:53:00
3:53 AM,75.0,66.9,76,29.98,10.0,West,4.6,-,N/A,,Partly Cloudy,260,2013-09-12 13:53:00
4:53 AM,75.0,68.0,79,29.98,10.0,NNW,4.6,-,N/A,,Partly Cloudy,340,2013-09-12 14:53:00
5:53 AM,75.0,68.0,79,29.99,10.0,NW,3.5,-,N/A,,Scattered Clouds,310,2013-09-12 15:53:00
6:53 AM,75.9,69.1,79,30.00,10.0,Calm,Calm,-,N/A,,Scattered Clouds,0,2013-09-12 16:53:00
7:53 AM,79.0,69.1,72,30.01,10.0,NNW,4.6,-,N/A,,Scattered Clouds,340,2013-09-12 17:53:00
8:53 AM,79.0,69.1,72,30.03,10.0,NE,8.1,-,N/A,,Mostly Cloudy,40,2013-09-12 18:53:00
9:53 AM,82.9,69.1,63,30.02,10.0,Variable,4.6,-,N/A,,Mostly Cloudy,0,2013-09-12 19:53:00
10:53 AM,82.0,71.1,69,30.01,9.0,North,13.8,17.3,0.00,Rain,Light Rain,10,2013-09-12 20:53:00
11:53 AM,80.1,72.0,76,30.00,8.0,NE,10.4,24.2,0.01,Rain,Rain,40,2013-09-12 21:53:00
12:06 PM,80.6,73.4,79,30.00,9.0,NNE,9.2,-,0.01,,Mostly Cloudy,30,2013-09-12 22:06:00
12:29 PM,80.6,71.6,74,29.98,10.0,ENE,9.2,-,0.01,Tornado,Funnel Cloud,70,2013-09-12 22:29:00
12:36 PM,80.6,71.6,74,29.98,10.0,ENE,10.4,-,0.01,,Mostly Cloudy,60,2013-09-12 22:36:00
12:53 PM,81.0,71.1,72,29.98,10.0,East,9.2,-,0.01,Rain,Light Rain,80,2013-09-12 22:53:00
1:53 PM,87.1,68.0,53,29.95,10.0,ENE,10.4,18.4,0.00,,Mostly Cloudy,70,2013-09-12 23:53:00
2:53 PM,86.0,68.0,55,29.94,10.0,NE,13.8,18.4,N/A,,Scattered Clouds,40,2013-09-13 00:53:00
3:53 PM,84.9,68.0,57,29.93,10.0,NE,12.7,-,N/A,,Mostly Cloudy,50,2013-09-13 01:53:00
4:53 PM,82.9,68.0,60,29.93,10.0,NE,11.5,16.1,0.00,,Mostly Cloudy,50,2013-09-13 02:53:00
5:53 PM,82.0,68.0,62,29.94,10.0,NNE,11.5,-,N/A,,Mostly Cloudy,20,2013-09-13 03:53:00
6:53 PM,80.1,68.0,67,29.95,10.0,NE,5.8,-,N/A,,Scattered Clouds,50,2013-09-13 04:53:00
7:53 PM,80.1,68.0,67,29.96,10.0,NNE,5.8,-,N/A,,Scattered Clouds,30,2013-09-13 05:53:00
8:53 PM,80.1,68.0,67,29.97,10.0,NNE,3.5,-,N/A,,Scattered Clouds,20,2013-09-13 06:53:00
9:53 PM,79.0,70.0,74,29.98,10.0,NE,5.8,-,0.00,,Mostly Cloudy,40,2013-09-13 07:53:00
10:53 PM,78.1,70.0,76,29.97,10.0,NE,4.6,-,N/A,,Mostly Cloudy,40,2013-09-13 08:53:00
11:53 PM,77.0,71.1,82,29.96,10.0,NNE,4.6,-,0.00,Rain,Light Rain,30,2013-09-13 09:53:00